Overview Statistics Trail Chart Weather Telemetry Raw packets
 

This is the latest recevied weather packets stored in our database for station/object K6GMW. If no packets are shown the sender has not sent any weather packets the latest 10 day(s).

<< 52 53 54 55 56 57 58 >>
Time Temp. Humidity Pressure Rain* Wind** Luminosity Snow
1788279377 35° C 52% 1019.1 hPa 0 mm - 878 W/m² -
1788279076 34.44° C 51% 1019.1 hPa 0 mm - 867 W/m² -
1788278773 34.44° C 52% 1018.9 hPa 0 mm - 813 W/m² -
1788278468 34.44° C 52% 1019.1 hPa 0 mm - 787 W/m² -
1788278166 33.89° C 54% 1019 hPa 0 mm - 777 W/m² -
1788277862 32.78° C 55% 1019 hPa 0 mm - 773 W/m² -
1788277562 33.33° C 55% 1019.1 hPa 0 mm - 730 W/m² -
1788277257 32.78° C 56% 1019.1 hPa 0 mm - 698 W/m² -
1788276952 33.33° C 55% 1019.1 hPa 0 mm - 696 W/m² -
1788276651 32.78° C 56% 1019.1 hPa 0 mm - 678 W/m² -
1788276346 33.33° C 55% 1019 hPa 0 mm - 651 W/m² -
1788276045 33.89° C 55% 1019.1 hPa 0 mm - 649 W/m² -
1788275741 32.78° C 57% 1019 hPa 0 mm - 630 W/m² -
1788275441 32.22° C 58% 1019.2 hPa 0 mm - 607 W/m² -
1788275139 32.78° C 59% 1019.3 hPa 0 mm - 585 W/m² -
1788274837 31.67° C 61% 1019.1 hPa 0 mm - 571 W/m² -
1788274531 32.22° C 60% 1019.3 hPa 0 mm - 544 W/m² -
1788274234 31.11° C 63% 1019.3 hPa 0 mm - 505 W/m² -
1788273927 31.11° C 64% 1019.4 hPa 0 mm - 512 W/m² -
1788273621 30.56° C 65% 1019.3 hPa 0 mm - 482 W/m² -
1788273327 30.56° C 66% 1019 hPa 0 mm - 513 W/m² -
1788273014 30° C 66% 1019.4 hPa 0 mm - 502 W/m² -
1788272714 30° C 66% 1019.4 hPa 0 mm - 479 W/m² -
1788272409 30.56° C 65% 1019.3 hPa 0 mm - 460 W/m² -
1788272108 30.56° C 65% 1019.4 hPa 0 mm - 418 W/m² -

* Rain latest hour (hover to see other rain measurements)
** Current wind speed in m/s (hover to see current wind gust speed)